Temperature
17 17 17 17 17 17 17 17 17 17 16 16 16 16 16 16 16 16 16 15 15 15 15 15 14 14 14 14 14 14 14 13 13 13 13 13 13 13
16 16 16 16 16 17 17 17 17 17 16 16 16 16 16 15 15 15 15 15 15 14 14 14 14 14 14 13 13 13 13 13 13 13 12 12 12 12
16 16 16 16 16 16 16 16 16 16 16 15 15 15 15 15 15 14 14 14 14 14 13 13 13 13 13 13 12 12 12 12 12 12 12 11 11 11
16 16 16 16 16 16 16 16 16 16 16 15 15 14 14 14 14 14 13 13 13 13 12 12 12 12 12 12 11 11 11 11 11 11 11 10 10 10
15 15 15 15 15 15 15 15 15 15 15 15 14 14 13 13 13 13 12 12 12 12 11 11 11 11 11 10 10 10 10 10 10 10 9 9 9 9
15 15 15 15 15 15 15 15 15 14 14 14 14 13 13 12 12 12 12 11 11 11 10 10 10 10 9 9 9 9 9 8 8 8 8 8 8 8
14 14 14 14 14 14 14 14 14 14 13 13 13 12 12 11 11 11 11 10 10 10 9 9 9 9 9 8 8 8 8 8 7 7 7 7 7 7
14 14 14 13 13 13 13 13 13 13 13 12 12 11 11 10 10 10 10 10 9 8 8 8 8 8 8 7 7 7 7 7 7 6 6 6 6 6
13 13 13 12 12 12 12 12 12 12 11 11 11 10 10 9 9 9 9 8 8 7 7 7 7 7 7 6 6 6 6 6 6 6 6 5 5 5
13 12 12 12 12 12 12 11 11 10 10 10 10 9 9 8 8 8 8 8 7 7 7 7 6 6 6 6 6 6 5 5 5 5 5 5 5 5
12 12 11 11 11 11 11 10 10 9 9 8 8 8 8 8 7 7 7 7 7 6 6 6 6 5 5 5 5 5 5 5 4 4 4 4 4 4
11 11 10 10 10 10 10 9 9 8 8 8 7 7 7 7 7 6 6 6 6 5 5 5 5 5 4 4 4 4 4 4 4 4 4 4 4 4
10 10 9 9 9 8 8 8 8 8 7 7 7 6 6 6 6 6 5 5 5 5 4 4 4 4 4 4 4 4 3 3 3 3 3 3 3 3
10 9 8 8 8 8 7 7 7 7 7 6 6 6 6 5 5 5 5 5 4 4 4 4 4 4 3 3 3 3 3 3 3 3 3 3 3 3
8 8 8 7 7 7 6 6 6 6 6 6 6 5 5 5 5 4 4 4 4 4 4 3 3 3 3 3 3 3 2 2 2 2 2 3 2 2
8 7 7 7 6 6 6 6 6 6 5 5 5 5 4 4 4 4 4 4 3 3 3 3 3 3 3 3 3 2 2 2 2 2 2 2 2 2
7 7 6 6 6 6 5 5 5 5 5 5 4 4 4 4 4 3 3 3 3 3 3 3 3 3 2 2 2 2 2 2 2 2 2 2 2 2
7 6 6 6 5 5 5 5 5 4 4 4 4 4 4 3 3 3 3 3 3 2 2 2 2 2 3 3 2 2 2 2 2 2 2 2 2 2
6 6 6 5 5 5 5 5 4 4 4 4 4 3 3 3 3 3 3 2 2 2 2 2 2 2 2 2 2 2 2 2 2 2 2 2 2 2
6 6 5 5 5 5 5 4 4 4 4 4 3 3 3 3 3 3 2 2 2 2 2 2 2 2 2 2 2 2 2 2 2 2 2 2 2 2
5 5 5 5 5 5 4 4 4 4 4 4 3 3 3 3 3 2 2 2 2 2 2 2 2 2 2 2 2 2 2 2 2 2 2 2 2 2
5 5 5 5 5 5 4 4 4 4 4 3 3 3 3 3 2 2 2 2 2 2 2 2 2 2 2 2 2 2 2 2 2 2 2 2 2 2
5 5 5 5 5 4 4 4 4 4 4 3 3 3 3 3 2 2 2 2 2 2 2 2 2 2 2 2 2 2 2 2 2 2 2 2 2 2
Wind_Speed
4 4 3 2 2 2 3 4 5 3 1 1 1 2 4 7 7 8 7 7 7 7 7 6 6 6 6 6 5 5 5 5 5 4 4 5 5 5
3 3 2 2 2 2 2 3 3 4 3 1 1 2 5 7 9 10 10 11 10 10 9 9 9 8 8 8 8 7 7 7 7 6 6 6 6 6
3 3 3 2 2 2 2 2 3 4 4 2 3 4 5 6 7 9 9 9 10 11 11 10 10 10 9 9 9 8 8 7 7 7 7 7 7 7
3 3 2 3 3 3 3 3 3 4 5 5 3 4 5 4 5 6 8 8 9 9 10 10 10 9 9 8 8 8 8 7 7 7 7 7 7 7
4 5 4 5 4 4 5 4 4 5 5 6 4 3 4 4 5 5 7 7 9 9 9 10 10 9 8 8 7 6 6 6 6 5 5 6 6 7
5 5 5 5 5 6 6 5 6 7 7 8 6 4 4 3 4 5 5 5 5 8 9 10 10 9 8 8 7 5 4 4 5 5 6 7 7 8
8 7 8 10 10 8 7 6 7 7 7 7 6 5 5 4 3 3 4 3 5 6 4 6 8 8 7 7 6 5 4 4 5 6 7 8 9 10
9 8 9 11 15 16 16 14 11 9 8 7 5 6 4 3 3 4 3 3 3 4 3 4 5 3 5 6 7 8 8 8 8 9 10 11 11 11
8 8 8 9 11 10 15 18 17 16 12 8 8 5 4 2 3 4 4 4 2 3 2 3 3 3 5 7 10 11 10 11 12 12 12 12 13 13
8 9 9 8 9 11 12 13 12 10 11 10 9 6 5 4 3 3 4 4 3 4 4 2 3 3 4 7 11 13 13 13 13 13 13 13 13 14
9 8 9 10 13 15 13 13 11 9 14 16 15 14 13 11 9 5 4 4 4 3 3 2 2 3 3 4 9 12 13 14 14 14 14 14 14 14
8 9 11 11 11 12 10 11 11 7 7 9 10 11 11 12 11 6 4 4 2 2 3 2 2 2 3 3 6 10 12 13 14 14 14 15 15 12
8 7 7 12 12 11 9 8 10 8 7 8 7 6 6 7 8 8 6 4 3 1 2 1 1 2 1 3 4 7 10 9 10 11 13 15 15 12
9 7 8 13 13 12 9 11 13 10 7 7 6 5 5 4 5 8 10 9 5 2 2 2 1 0 1 2 4 4 7 10 8 7 11 14 14 15
8 11 13 14 13 10 12 13 10 7 7 6 6 4 3 3 5 7 9 11 11 9 8 5 2 0 1 1 3 3 4 5 7 6 7 8 8 9
9 11 14 13 10 9 8 7 6 5 6 5 4 3 3 4 4 3 4 4 4 5 10 10 7 2 1 2 2 3 3 4 5 6 5 6 10 12
8 7 6 6 6 6 5 5 5 5 5 4 4 4 4 4 3 3 3 3 3 3 4 6 9 7 3 2 2 4 4 4 5 5 4 5 6 10
9 7 6 6 6 5 5 4 4 4 4 4 4 4 3 3 3 3 3 3 2 2 3 3 4 4 5 4 4 3 4 4 5 6 4 4 5 8
7 6 6 5 5 5 4 4 3 3 3 4 4 3 3 2 2 2 2 2 2 2 3 3 2 2 4 5 6 6 3 5 5 5 5 4 5 7
5 5 5 5 5 5 4 4 3 3 3 3 3 2 2 2 2 2 2 1 2 2 3 3 3 2 2 3 4 6 11 5 4 4 5 5 5 10
4 5 5 5 5 4 4 4 4 3 3 3 2 2 2 2 1 1 1 3 2 2 3 4 5 7 3 1 4 6 7 14 11 5 5 5 5 5
4 5 4 5 5 4 4 4 4 3 3 2 2 1 1 1 0 1 1 2 2 3 3 4 6 5 2 3 5 6 6 8 15 18 14 10 4 4
5 5 5 5 4 4 4 5 5 4 3 3 2 1 1 0 1 1 2 2 2 3 3 4 4 3 3 3 4 5 7 7 5 6 9 18 19 18
Wind_Direction
189 184 183 200 178 172 163 157 154 167 226 266 41 37 92 97 99 100 97 103 109 116 114 105 93 89 88 86 85 81 73 64 56 47 37 29 16 1
186 171 182 190 164 154 157 157 159 160 173 204 76 64 85 90 90 95 92 91 90 96 97 97 94 91 89 88 86 82 78 71 62 54 45 35 25 16
183 164 172 147 128 112 111 115 123 131 138 94 52 52 61 76 79 86 88 87 87 87 89 90 90 89 88 86 85 81 75 69 63 55 46 36 26 15
164 140 140 129 110 107 104 99 107 118 129 123 79 53 60 79 82 79 78 84 88 82 85 83 82 83 83 81 80 78 73 66 57 47 38 27 16 5
135 125 118 113 101 94 94 94 95 99 103 117 102 62 58 61 68 70 66 60 74 69 73 74 72 74 75 73 69 66 61 54 43 33 23 12 5 360
101 104 104 107 109 103 94 95 101 99 97 103 97 73 57 40 60 64 55 41 49 52 59 65 61 59 58 60 59 58 50 33 16 4 357 353 350 346
89 86 88 92 93 95 100 100 104 103 100 100 95 82 65 60 60 52 64 56 45 37 48 50 46 39 37 40 35 31 14 354 346 343 341 337 334 332
101 90 84 83 86 85 87 88 96 108 114 108 99 97 84 64 58 72 74 63 42 6 44 38 37 26 15 24 16 13 1 350 342 337 335 334 332 329
109 104 97 91 88 91 82 78 75 80 95 110 105 100 94 79 84 75 69 72 63 339 44 32 9 9 10 25 23 13 3 355 349 343 337 333 333 332
99 104 107 100 100 102 95 84 76 71 81 88 99 96 95 92 98 112 109 91 57 17 42 47 355 351 356 10 12 7 359 353 347 344 341 339 335 330
89 90 100 101 104 104 102 98 90 79 80 87 87 85 81 77 80 79 71 78 53 4 9 56 351 342 338 335 351 353 350 347 347 346 345 343 339 335
92 85 87 96 101 103 107 109 105 98 91 80 72 68 65 61 62 73 101 98 83 21 338 37 353 6 345 313 315 330 338 338 342 345 344 341 339 335
105 96 88 93 92 94 100 107 114 113 100 92 81 65 54 48 44 52 71 105 103 73 297 66 15 1 335 307 315 319 331 330 334 339 341 339 338 333
110 106 100 94 89 89 90 93 95 94 91 85 78 65 55 43 32 41 52 61 72 79 9 58 86 298 342 327 310 315 328 332 332 330 332 332 331 330
106 108 101 94 88 83 84 88 88 91 92 90 85 72 59 50 46 42 37 44 44 37 32 35 60 54 140 241 288 302 314 314 318 321 320 319 314 318
103 98 92 88 87 85 81 77 77 92 104 103 96 71 53 50 46 44 41 26 32 5 6 14 17 40 6 297 282 301 302 299 307 313 314 312 315 316
115 100 93 92 86 81 76 72 74 79 84 82 81 71 61 55 38 32 47 44 42 6 344 340 348 350 303 249 303 302 302 303 300 309 320 317 304 306
113 114 113 109 108 108 103 90 80 85 88 89 83 81 78 68 45 31 42 49 34 353 331 321 341 356 355 325 259 273 298 293 300 307 305 305 299 301
109 119 124 126 124 122 120 114 105 101 99 95 94 89 83 69 58 39 30 27 5 339 319 320 350 21 3 334 307 297 274 297 305 307 299 289 281 291
117 129 134 136 134 132 132 127 118 106 97 96 93 88 83 77 60 34 16 4 338 331 329 326 325 319 273 268 278 295 307 287 292 297 294 297 286 292
137 140 144 143 142 140 140 135 130 127 124 113 102 95 89 82 57 359 337 342 351 331 321 306 288 306 290 329 321 308 301 313 310 288 284 298 306 307
152 152 154 151 149 149 145 137 130 130 130 124 127 122 109 106 115 304 314 320 311 298 294 294 309 331 350 330 309 301 301 310 322 325 317 300 271 278
161 159 158 157 155 154 150 146 143 149 155 154 154 158 142 118 283 282 294 300 304 310 310 311 320 328 312 294 295 298 303 308 310 319 315 317 317 309
Height
1555 1556 1557 1558 1560 1561 1561 1562 1564 1563 1564 1565 1565 1566 1566 1566 1567 1567 1568 1568 1568 1568 1569 1569 1569 1569 1569 1569 1568 1568 1568 1567 1567 1566 1566 1565 1564 1564
1551 1552 1554 1555 1556 1557 1558 1559 1560 1561 1561 1562 1563 1563 1564 1564 1564 1565 1565 1565 1566 1566 1566 1566 1566 1566 1566 1566 1565 1565 1564 1564 1563 1562 1562 1561 1560 1559
1548 1549 1550 1552 1553 1554 1555 1556 1557 1558 1559 1560 1560 1561 1562 1562 1562 1563 1563 1563 1563 1563 1563 1563 1563 1563 1563 1563 1562 1562 1561 1560 1559 1558 1557 1557 1556 1555
1545 1546 1547 1549 1550 1551 1552 1553 1554 1555 1556 1557 1558 1559 1559 1560 1560 1561 1561 1561 1561 1561 1561 1561 1561 1560 1560 1559 1559 1559 1558 1557 1556 1555 1553 1552 1551 1550
1542 1543 1544 1546 1547 1549 1550 1551 1552 1553 1554 1554 1555 1556 1557 1558 1558 1559 1559 1559 1559 1560 1559 1559 1559 1558 1558 1557 1556 1556 1555 1554 1552 1551 1549 1548 1547 1545
1539 1541 1542 1544 1545 1546 1547 1548 1549 1550 1552 1552 1553 1554 1555 1556 1556 1556 1557 1557 1557 1558 1558 1557 1557 1557 1556 1555 1554 1553 1552 1551 1549 1548 1546 1545 1543 1541
1538 1539 1540 1542 1543 1545 1546 1547 1548 1549 1550 1551 1552 1552 1553 1554 1554 1555 1555 1555 1556 1556 1556 1556 1556 1555 1554 1553 1552 1551 1550 1549 1547 1545 1544 1542 1540 1538
1536 1538 1539 1541 1542 1544 1545 1546 1547 1548 1549 1550 1550 1551 1552 1553 1553 1554 1554 1554 1554 1555 1555 1555 1554 1554 1553 1552 1551 1549 1548 1546 1545 1543 1541 1539 1537 1535
1535 1537 1538 1540 1541 1542 1544 1545 1546 1547 1548 1549 1549 1550 1551 1552 1552 1553 1553 1553 1554 1554 1554 1553 1553 1552 1552 1550 1549 1547 1546 1544 1542 1541 1539 1537 1534 1532
1535 1536 1538 1539 1541 1542 1543 1544 1545 1546 1548 1548 1549 1550 1552 1552 1553 1553 1553 1553 1554 1554 1554 1553 1552 1551 1550 1549 1548 1546 1544 1542 1540 1538 1536 1534 1532 1529
1535 1537 1538 1539 1541 1543 1543 1544 1545 1547 1548 1549 1550 1551 1552 1553 1553 1553 1552 1552 1552 1553 1553 1552 1551 1550 1549 1548 1546 1544 1542 1540 1538 1536 1534 1531 1529 1526
1534 1536 1539 1540 1542 1544 1545 1545 1545 1547 1549 1550 1551 1552 1553 1553 1553 1553 1553 1553 1552 1552 1552 1552 1550 1549 1548 1547 1545 1543 1541 1538 1536 1534 1531 1529 1526 1523
1534 1537 1539 1541 1543 1545 1546 1547 1547 1549 1550 1551 1552 1553 1553 1554 1554 1553 1553 1553 1553 1552 1552 1551 1550 1549 1547 1545 1543 1541 1539 1536 1534 1532 1529 1526 1523 1520
1536 1538 1540 1542 1544 1546 1547 1548 1549 1550 1551 1552 1553 1554 1554 1554 1554 1554 1554 1554 1553 1553 1552 1551 1549 1548 1546 1543 1541 1539 1537 1535 1532 1529 1526 1523 1520 1517
1538 1540 1542 1544 1546 1547 1549 1550 1551 1552 1553 1554 1554 1555 1555 1556 1555 1555 1555 1554 1553 1553 1552 1550 1549 1547 1545 1543 1540 1538 1535 1533 1530 1527 1523 1520 1517 1513
1540 1542 1544 1546 1547 1549 1551 1552 1553 1554 1555 1555 1556 1556 1557 1557 1556 1556 1555 1554 1553 1552 1552 1550 1548 1546 1544 1542 1539 1537 1534 1531 1528 1525 1521 1518 1514 1511
1542 1543 1545 1547 1549 1550 1552 1554 1555 1556 1556 1557 1557 1557 1557 1557 1557 1556 1556 1555 1553 1552 1551 1550 1548 1546 1543 1541 1538 1535 1533 1530 1526 1523 1519 1515 1512 1508
1544 1545 1547 1549 1551 1552 1554 1555 1556 1557 1557 1558 1558 1558 1558 1558 1557 1557 1556 1555 1554 1552 1551 1549 1546 1544 1542 1539 1538 1534 1531 1528 1524 1521 1517 1513 1509 1505
1546 1547 1549 1551 1553 1554 1555 1557 1557 1558 1559 1559 1559 1559 1559 1558 1558 1557 1556 1555 1554 1552 1551 1549 1546 1543 1540 1538 1536 1534 1530 1526 1523 1519 1515 1511 1507 1503
1548 1550 1551 1553 1554 1556 1557 1558 1558 1559 1559 1560 1560 1559 1559 1558 1558 1557 1556 1555 1554 1552 1550 1548 1546 1543 1541 1538 1535 1532 1529 1525 1521 1517 1513 1509 1505 1501
1550 1552 1553 1554 1556 1557 1557 1558 1559 1559 1560 1560 1560 1559 1559 1558 1557 1557 1556 1555 1553 1551 1549 1547 1545 1543 1541 1538 1534 1530 1527 1524 1520 1516 1511 1506 1502 1497
1551 1553 1554 1556 1557 1557 1558 1559 1559 1559 1559 1560 1559 1559 1558 1558 1557 1556 1555 1554 1552 1550 1548 1546 1544 1542 1539 1536 1532 1529 1525 1521 1518 1515 1510 1506 1501 1495
1552 1553 1555 1556 1557 1558 1558 1558 1559 1559 1559 1559 1559 1558 1557 1557 1556 1555 1554 1552 1551 1549 1547 1545 1542 1540 1537 1534 1531 1527 1523 1519 1515 1511 1508 1504 1501 1496